�N����,����,�~����,�C��,���x,�C��,����,���ϕ���,�ő�u�ԕ���,�ő厞����,���˗�,�I�_���x,�n�����x,�ő啗���N��,DTYPE
"21/06/09","00:10",0.0,21.0,68.7,1010.2,344.5,1.8,3.6,339.5,0.00,15.1,130.0,"00:02:16",1
"21/06/09","00:20",0.0,21.0,69.0,1010.7,347.1,1.7,3.1,340.3,0.00,15.1,130.0,"00:12:56",1
"21/06/09","00:30",0.0,21.0,69.1,1010.4,343.4,1.7,3.7,358.9,0.00,15.2,130.0,"00:23:44",1
"21/06/09","00:40",0.0,20.5,69.6,1010.2,336.3,1.1,2.4,331.5,0.00,14.8,130.0,"00:30:08",1
"21/06/09","00:50",0.0,20.0,70.4,1010.2,334.4,0.8,1.6,339.4,0.00,14.5,130.0,"00:40:56",1
"21/06/09","01:00",0.0,19.5,71.7,1010.2,314.1,0.7,1.6,314.0,0.00,14.3,130.0,"00:59:20",1
"21/06/09","01:10",0.0,19.0,73.5,1010.2,309.6,1.0,1.7,323.1,0.00,14.2,130.0,"01:04:40",1
"21/06/09","01:20",0.0,18.9,75.6,1010.2,314.2,1.1,2.5,330.0,0.00,14.5,130.0,"01:18:32",1
"21/06/09","01:30",0.0,18.6,77.5,1010.4,324.7,1.2,1.9,334.3,0.00,14.6,130.0,"01:29:36",1
"21/06/09","01:40",0.0,18.4,79.2,1010.2,328.9,1.5,2.5,331.4,0.00,14.8,130.0,"01:32:08",1
"21/06/09","01:50",0.0,18.4,80.6,1010.2,327.2,1.5,2.1,337.8,0.00,15.0,130.0,"01:41:28",1
"21/06/09","02:00",0.0,18.3,81.7,1010.4,332.6,1.2,1.9,334.3,0.00,15.2,130.0,"01:56:40",1
"21/06/09","02:10",0.0,18.3,82.5,1010.2,333.3,1.3,2.4,340.1,0.00,15.3,130.0,"02:08:56",1
"21/06/09","02:20",0.0,18.3,83.1,1010.9,326.2,1.7,3.4,326.8,0.00,15.4,130.0,"02:17:28",1
"21/06/09","02:30",0.0,18.4,83.4,1010.7,331.4,1.7,3.6,342.1,0.00,15.6,130.0,"02:22:40",1
"21/06/09","02:40",0.0,18.1,83.6,1010.4,328.5,1.6,2.8,331.0,0.00,15.3,130.0,"02:32:56",1
"21/06/09","02:50",0.0,18.1,84.1,1010.4,327.1,1.7,2.9,327.5,0.00,15.4,130.0,"02:43:52",1
"21/06/09","03:00",0.0,18.3,84.4,1010.4,328.8,2.7,5.0,334.9,0.00,15.7,130.0,"02:59:12",1
"21/06/09","03:10",0.0,18.4,84.0,1010.2,326.8,3.2,4.5,329.6,0.00,15.7,130.0,"03:07:20",1
"21/06/09","03:20",0.0,18.4,83.6,1010.4,333.1,3.2,4.7,349.2,0.00,15.6,130.0,"03:12:08",1
"21/06/09","03:30",0.0,18.1,83.7,1010.7,333.2,2.3,3.9,338.2,0.00,15.3,130.0,"03:28:08",1
"21/06/09","03:40",0.0,18.0,83.9,1010.4,337.9,1.8,3.3,337.7,0.00,15.3,130.0,"03:32:48",1
"21/06/09","03:50",0.0,17.9,84.1,1010.9,345.4,1.6,2.9,324.3,0.00,15.2,130.0,"03:41:44",1
"21/06/09","04:00",0.0,17.8,84.2,1010.9,335.8,1.8,3.2,331.4,0.00,15.1,130.0,"03:50:40",1
"21/06/09","04:10",0.0,17.7,84.5,1010.7,333.3,2.1,3.7,344.0,0.00,15.1,130.0,"04:04:56",1
"21/06/09","04:20",0.0,17.5,84.7,1010.9,339.4,1.7,3.1,343.0,0.00,14.9,130.0,"04:17:52",1
"21/06/09","04:30",0.0,17.4,84.9,1011.4,339.0,1.7,4.2,346.7,0.00,14.9,130.0,"04:20:48",1
"21/06/09","04:40",0.0,17.3,85.2,1011.2,336.4,1.7,4.1,341.1,0.00,14.8,130.0,"04:33:12",1
"21/06/09","04:50",0.0,17.4,85.4,1011.4,335.7,1.8,2.9,333.2,0.00,15.0,130.0,"04:40:16",1
"21/06/09","05:00",0.0,17.4,85.5,1011.2,335.8,2.0,3.9,342.5,0.00,15.0,130.0,"04:55:20",1
"21/06/09","05:10",0.0,17.3,85.6,1011.4,334.1,2.0,3.2,343.7,0.00,14.9,130.0,"05:01:20",1
"21/06/09","05:20",0.0,17.3,85.6,1011.6,336.0,2.0,3.4,331.5,0.00,14.9,130.0,"05:18:16",1
"21/06/09","05:30",0.0,17.3,85.5,1011.6,336.3,1.8,3.4,330.9,0.00,14.9,130.0,"05:22:16",1
"21/06/09","05:40",0.0,17.7,85.4,1011.4,344.2,1.7,3.5,342.6,0.01,15.3,130.0,"05:30:48",1
"21/06/09","05:50",0.0,18.1,85.5,1011.2,334.6,2.3,4.4,344.1,0.01,15.7,130.0,"05:47:28",1
"21/06/09","06:00",0.0,18.3,85.4,1011.6,335.2,2.7,5.1,345.5,0.02,15.8,130.0,"05:56:24",1
"21/06/09","06:10",0.0,18.3,85.2,1011.2,337.9,1.8,3.7,342.6,0.02,15.8,130.0,"06:00:08",1
"21/06/09","06:20",0.0,18.3,85.4,1011.6,332.8,2.0,3.5,336.5,0.03,15.8,130.0,"06:11:44",1
"21/06/09","06:30",0.0,18.5,85.3,1011.6,328.2,2.0,4.5,337.7,0.04,16.0,130.0,"06:20:48",1
"21/06/09","06:40",0.0,18.8,85.0,1011.9,330.9,2.6,4.2,346.1,0.06,16.3,130.0,"06:33:44",1
"21/06/09","06:50",0.0,19.2,84.0,1012.1,328.9,2.1,4.4,337.2,0.09,16.5,130.0,"06:49:20",1
"21/06/09","07:00",0.0,19.5,82.9,1012.3,326.9,2.2,4.1,336.6,0.09,16.6,130.0,"06:58:48",1
"21/06/09","07:10",0.0,19.9,81.4,1012.3,335.1,2.1,4.3,337.1,0.14,16.7,130.0,"07:01:36",1
"21/06/09","07:20",0.0,20.7,79.4,1012.1,340.3,1.6,3.4,348.7,0.16,17.0,130.0,"07:17:20",1
"21/06/09","07:30",0.0,21.4,76.4,1011.9,352.7,1.5,3.1,341.9,0.19,17.1,130.0,"07:21:28",1
"21/06/09","07:40",0.0,22.3,74.4,1011.9,315.9,1.1,2.8,350.8,0.21,17.6,130.0,"07:31:36",1
"21/06/09","07:50",0.0,22.6,71.7,1011.9,265.5,0.7,1.6,295.4,0.23,17.3,130.0,"07:43:44",1
"21/06/09","08:00",0.0,23.1,69.2,1011.4,301.5,0.8,2.4,325.5,0.26,17.2,130.0,"07:55:36",1
"21/06/09","08:10",0.0,23.7,66.8,1011.2,248.8,0.6,1.7,353.6,0.28,17.2,130.0,"08:09:28",1
"21/06/09","08:20",0.0,24.2,64.7,1011.4,321.8,0.6,1.7,335.4,0.31,17.2,130.0,"08:12:40",1
"21/06/09","08:30",0.0,24.4,63.1,1011.2,70.0,0.7,1.8,114.4,0.24,17.0,130.0,"08:27:20",1
"21/06/09","08:40",0.0,24.5,63.1,1011.2,106.9,0.7,1.4,68.6,0.27,17.1,130.0,"08:36:48",1
"21/06/09","08:50",0.0,25.2,61.9,1011.2,47.5,0.5,1.4,12.3,0.36,17.4,130.0,"08:42:56",1
"21/06/09","09:00",0.0,25.5,60.4,1010.4,2.9,0.8,2.4,349.8,0.39,17.3,130.0,"08:54:00",1
"21/06/09","09:10",0.0,25.8,59.5,1010.7,340.8,0.8,1.9,10.3,0.42,17.4,130.0,"09:02:40",1
"21/06/09","09:20",0.0,26.3,56.1,1010.7,118.8,0.8,2.1,147.1,0.45,16.9,130.0,"09:13:20",1
"21/06/09","09:30",0.0,26.2,56.1,1010.9,136.5,0.8,2.6,134.6,0.35,16.8,130.0,"09:28:32",1
"21/06/09","09:40",0.0,26.7,53.1,1011.4,54.9,1.0,1.7,154.6,0.49,16.4,130.0,"09:30:16",1
"21/06/09","09:50",0.0,27.2,53.4,1011.6,205.7,0.7,3.2,222.3,0.49,17.0,130.0,"09:46:56",1
"21/06/09","10:00",0.0,27.1,51.0,1011.6,279.1,0.7,2.1,211.1,0.51,16.1,130.0,"09:54:48",1
"21/06/09","10:10",0.0,27.2,52.0,1011.6,319.0,1.0,1.9,346.7,0.52,16.5,130.0,"10:02:48",1
"21/06/09","10:20",0.0,27.8,53.5,1011.9,180.6,1.1,2.4,222.8,0.54,17.5,130.0,"10:11:20",1
"21/06/09","10:30",0.0,28.2,49.5,1011.6,124.3,0.8,2.0,112.0,0.55,16.7,130.0,"10:20:16",1
"21/06/09","10:40",0.0,29.0,50.4,1011.9,226.7,0.3,1.0,271.2,0.56,17.7,130.0,"10:33:12",1
"21/06/09","10:50",0.0,29.2,49.4,1012.1,106.9,1.1,2.6,123.7,0.57,17.6,130.0,"10:47:44",1
"21/06/09","11:00",0.0,29.7,50.3,1011.9,110.5,0.8,2.4,126.7,0.58,18.3,130.0,"10:59:12",1
"21/06/09","11:10",0.0,29.8,45.8,1012.1,139.8,1.0,2.1,145.4,0.59,16.9,130.0,"11:00:16",1
"21/06/09","11:20",0.0,30.1,46.6,1012.3,81.3,0.7,1.8,354.2,0.59,17.5,130.0,"11:12:08",1
"21/06/09","11:30",0.0,30.0,44.8,1011.9,152.5,1.5,3.3,165.3,0.60,16.7,130.0,"11:26:40",1
"21/06/09","11:40",0.0,30.0,41.8,1012.1,170.5,2.0,4.0,184.6,0.61,15.7,130.0,"11:31:28",1
"21/06/09","11:50",0.0,29.7,45.0,1011.6,270.0,1.6,3.5,350.2,0.58,16.5,130.0,"11:45:12",1
"21/06/09","12:00",0.0,30.4,44.3,1011.6,162.3,1.2,2.8,224.3,0.56,16.9,130.0,"11:50:24",1
"21/06/09","12:10",0.0,30.3,41.0,1011.6,215.3,1.5,3.6,224.6,0.62,15.6,130.0,"12:09:04",1
"21/06/09","12:20",0.0,30.8,43.8,1011.4,178.5,1.3,3.6,141.8,0.62,17.1,130.0,"12:18:16",1
"21/06/09","12:30",0.0,30.9,43.2,1011.4,12.8,1.3,3.2,141.3,0.65,17.0,130.0,"12:20:24",1
"21/06/09","12:40",0.0,29.4,43.5,1011.2,230.4,1.3,2.8,220.6,0.16,15.7,130.0,"12:33:20",1
"21/06/09","12:50",0.0,30.5,43.2,1010.9,152.3,1.0,2.1,159.3,0.60,16.6,130.0,"12:42:24",1
"21/06/09","13:00",0.0,31.4,44.4,1010.9,168.5,1.3,2.7,224.1,0.61,17.9,130.0,"12:58:00",1
"21/06/09","13:10",0.0,31.0,42.2,1010.9,324.6,1.5,2.9,130.9,0.56,16.7,130.0,"13:01:28",1
"21/06/09","13:20",0.0,30.8,42.3,1010.9,284.8,1.0,2.7,354.6,0.46,16.6,130.0,"13:14:40",1
"21/06/09","13:30",0.0,30.7,43.3,1010.4,336.3,1.3,3.3,339.5,0.41,16.8,130.0,"13:27:12",1
"21/06/09","13:40",0.0,31.0,41.1,1010.9,301.9,1.0,2.0,345.9,0.48,16.3,130.0,"13:32:08",1
"21/06/09","13:50",0.0,31.4,39.5,1010.4,230.6,0.7,1.8,359.9,0.53,16.0,130.0,"13:40:48",1
"21/06/09","14:00",0.0,31.7,40.4,1010.9,144.3,1.3,2.6,136.3,0.56,16.6,130.0,"13:55:44",1
"21/06/09","14:10",0.0,32.1,37.5,1010.4,197.5,1.1,2.7,203.2,0.54,15.8,130.0,"14:05:52",1
"21/06/09","14:20",0.0,32.4,36.9,1010.4,87.4,1.1,2.7,120.2,0.54,15.8,130.0,"14:13:28",1
"21/06/09","14:30",0.0,32.5,38.1,1010.4,140.7,1.1,3.2,132.2,0.52,16.4,130.0,"14:20:02",1
"21/06/09","14:40",0.0,32.0,37.6,1010.4,107.1,1.3,3.6,141.9,0.50,15.8,130.0,"14:30:08",1
"21/06/09","14:50",0.0,32.4,35.9,1010.4,85.6,1.0,3.5,124.1,0.49,15.4,130.0,"14:49:52",1
"21/06/09","15:00",0.0,31.1,35.1,1010.2,187.7,2.2,4.7,223.7,0.48,13.9,130.0,"14:55:04",1
"21/06/09","15:10",0.0,32.3,38.1,1010.0,181.1,0.7,2.2,193.8,0.46,16.3,130.0,"15:02:08",1
"21/06/09","15:20",0.0,32.5,35.1,1010.0,155.3,0.8,2.5,90.4,0.44,15.2,130.0,"15:12:56",1
"21/06/09","15:30",0.0,32.0,35.4,1010.0,297.4,1.3,3.2,337.7,0.42,14.8,130.0,"15:26:16",1
"21/06/09","15:40",0.0,32.1,36.6,1010.0,37.8,1.1,4.4,358.0,0.39,15.5,130.0,"15:34:08",1
"21/06/09","15:50",0.0,31.9,36.0,1010.2,112.0,1.2,2.9,155.8,0.37,15.0,130.0,"15:44:48",1
"21/06/09","16:00",0.0,32.2,35.7,1010.2,67.2,0.8,2.0,67.3,0.35,15.2,130.0,"15:59:28",1
"21/06/09","16:10",0.0,32.1,37.0,1010.0,65.3,0.8,2.5,351.2,0.31,15.6,130.0,"16:03:20",1
"21/06/09","16:20",0.0,31.6,37.4,1009.7,97.8,1.1,2.8,108.0,0.29,15.4,130.0,"16:12:24",1
"21/06/09","16:30",0.0,31.2,39.4,1009.3,74.2,0.8,2.9,25.3,0.19,15.8,130.0,"16:26:08",1
"21/06/09","16:40",0.0,31.2,37.8,1009.3,29.1,1.0,2.2,335.0,0.19,15.2,130.0,"16:38:16",1
"21/06/09","16:50",0.0,31.1,39.4,1009.0,43.5,0.8,2.5,3.4,0.17,15.7,130.0,"16:40:48",1
"21/06/09","17:00",0.0,31.4,40.0,1009.0,84.9,0.8,2.4,85.0,0.11,16.2,130.0,"16:58:16",1
"21/06/09","17:10",0.0,30.7,40.7,1009.3,104.6,1.0,2.1,123.0,0.04,15.9,130.0,"17:06:48",1
"21/06/09","17:20",0.0,30.4,41.0,1009.0,127.7,1.5,3.2,161.4,0.04,15.7,130.0,"17:13:04",1
"21/06/09","17:30",0.0,30.0,41.5,1008.8,100.5,0.8,2.4,359.8,0.03,15.5,130.0,"17:27:12",1
"21/06/09","17:40",0.0,30.2,42.0,1008.8,69.2,0.8,2.0,108.6,0.03,15.9,130.0,"17:30:16",1
"21/06/09","17:50",0.0,30.2,41.3,1009.0,51.4,1.0,2.1,9.7,0.03,15.7,130.0,"17:40:56",1
"21/06/09","18:00",0.0,30.1,42.6,1008.8,41.4,0.7,1.7,67.0,0.02,16.0,130.0,"17:50:08",1
"21/06/09","18:10",0.0,29.9,44.0,1008.8,55.5,0.7,1.8,51.6,0.02,16.4,130.0,"18:01:36",1
"21/06/09","18:20",0.0,29.6,46.6,1009.0,344.9,1.2,2.7,335.8,0.01,17.0,130.0,"18:17:36",1
"21/06/09","18:30",0.0,28.3,49.2,1009.0,334.0,2.7,4.5,331.3,0.02,16.7,130.0,"18:28:00",1
"21/06/09","18:40",0.0,27.6,50.9,1008.6,344.2,2.3,4.4,323.8,0.01,16.6,130.0,"18:32:16",1
"21/06/09","18:50",0.0,27.3,52.2,1007.8,354.6,1.8,3.9,351.8,0.00,16.7,130.0,"18:41:04",1
"21/06/09","19:00",0.0,26.9,53.9,1008.6,353.5,1.7,3.3,345.8,0.00,16.8,130.0,"18:50:16",1
"21/06/09","19:10",0.0,26.3,55.7,1008.6,344.4,1.7,3.2,347.9,0.00,16.8,130.0,"19:09:52",1
"21/06/09","19:20",0.0,25.8,57.0,1009.0,342.6,1.8,3.2,339.5,0.00,16.7,130.0,"19:19:28",1
"21/06/09","19:30",0.0,25.4,58.5,1009.3,325.5,1.7,2.9,342.7,0.00,16.7,130.0,"19:21:52",1
"21/06/09","19:40",0.0,25.0,59.4,1009.5,303.9,1.5,3.2,326.7,0.00,16.6,130.0,"19:36:32",1
"21/06/09","19:50",0.0,24.6,60.6,1010.0,207.9,0.8,2.4,205.2,0.00,16.5,130.0,"19:48:16",1
"21/06/09","20:00",0.0,24.5,60.8,1010.2,334.0,1.6,3.3,335.1,0.00,16.5,130.0,"19:58:48",1
"21/06/09","20:10",0.0,24.4,62.3,1010.4,342.2,1.2,2.1,330.8,0.00,16.8,130.0,"20:00:08",1
"21/06/09","20:20",0.0,23.8,63.2,1010.4,306.7,1.2,2.4,320.1,0.00,16.4,130.0,"20:13:52",1
"21/06/09","20:30",0.0,23.2,64.6,1010.9,279.6,1.1,1.8,328.4,0.00,16.2,130.0,"20:23:04",1
"21/06/09","20:40",0.0,23.0,65.8,1011.2,276.8,1.0,1.6,268.9,0.00,16.3,130.0,"20:38:56",1
"21/06/09","20:50",0.0,22.7,66.7,1010.9,294.2,1.2,2.0,329.1,0.00,16.2,130.0,"20:46:32",1
"21/06/09","21:00",0.0,22.5,67.4,1011.4,306.4,1.3,2.1,317.1,0.00,16.2,130.0,"20:54:08",1
"21/06/09","21:10",0.0,22.2,67.9,1011.4,305.7,1.2,2.4,326.9,0.00,16.0,130.0,"21:04:40",1
"21/06/09","21:20",0.0,22.2,68.9,1011.9,324.7,2.1,3.7,338.3,0.00,16.3,130.0,"21:14:32",1
"21/06/09","21:30",0.0,22.1,69.6,1011.9,331.7,2.1,3.2,339.9,0.00,16.3,130.0,"21:26:32",1
"21/06/09","21:40",0.0,21.9,70.3,1011.9,303.8,1.5,3.1,326.3,0.00,16.3,130.0,"21:34:48",1
"21/06/09","21:50",0.0,21.6,71.0,1012.1,291.4,1.1,1.4,264.8,0.00,16.2,130.0,"21:42:56",1
"21/06/09","22:00",0.0,21.3,71.9,1012.1,320.8,1.3,1.8,323.8,0.00,16.1,130.0,"21:53:28",1
"21/06/09","22:10",0.0,21.1,72.7,1012.3,310.2,1.7,3.1,338.9,0.00,16.1,130.0,"22:06:24",1
"21/06/09","22:20",0.0,21.1,73.0,1012.6,312.2,1.2,2.2,313.5,0.00,16.1,130.0,"22:15:36",1
"21/06/09","22:30",0.0,20.9,73.5,1012.6,305.6,1.1,2.1,323.0,0.00,16.0,130.0,"22:21:04",1
"21/06/09","22:40",0.0,20.6,74.2,1012.3,307.1,0.8,1.7,345.1,0.00,15.9,130.0,"22:39:44",1
"21/06/09","22:50",0.0,20.5,74.9,1012.6,331.6,1.3,2.2,340.6,0.00,15.9,130.0,"22:40:24",1
"21/06/09","23:00",0.0,20.4,75.6,1012.8,299.4,1.0,1.8,313.4,0.00,16.0,130.0,"22:57:44",1
"21/06/09","23:10",0.0,20.1,76.2,1012.6,318.7,1.0,1.7,317.7,0.00,15.8,130.0,"23:07:28",1
"21/06/09","23:20",0.0,20.0,77.0,1012.8,289.2,0.8,1.4,307.3,0.00,15.9,130.0,"23:15:28",1
"21/06/09","23:30",0.0,19.8,77.5,1012.3,313.9,1.0,1.8,324.1,0.00,15.8,130.0,"23:24:16",1
"21/06/09","23:40",0.0,19.7,78.1,1012.6,316.0,1.2,1.9,325.8,0.00,15.8,130.0,"23:39:20",1
"21/06/09","23:50",0.0,19.6,78.6,1012.6,295.1,1.0,1.4,311.9,0.00,15.8,130.0,"23:41:04",1
"21/06/09","24:00",0.0,19.4,79.1,1012.6,294.3,0.8,1.2,322.9,0.00,15.7,130.0,"23:55:28",1
